TimeEST,TemperatureF,Dew PointF,Humidity,Sea Level PressureIn,VisibilityMPH,Wind Direction,Wind SpeedMPH,Gust SpeedMPH,PrecipitationIn,Events,Conditions,WindDirDegrees,DateUTC
12:56 AM,28.0,19.0,69,30.12,10.0,SSW,6.9,-,N/A,,Partly Cloudy,210,2012-11-25 05:56:00
1:56 AM,28.9,19.0,67,30.09,10.0,South,6.9,-,N/A,,Overcast,190,2012-11-25 06:56:00
2:56 AM,28.0,19.0,69,30.10,10.0,SSW,8.1,-,N/A,,Clear,200,2012-11-25 07:56:00
3:56 AM,28.0,19.9,72,30.07,10.0,SSW,8.1,-,N/A,,Clear,200,2012-11-25 08:56:00
4:56 AM,28.0,19.9,72,30.06,10.0,SSW,9.2,-,N/A,,Mostly Cloudy,200,2012-11-25 09:56:00
5:56 AM,28.0,19.9,72,30.04,10.0,South,11.5,-,N/A,,Scattered Clouds,190,2012-11-25 10:56:00
6:56 AM,28.9,19.9,69,30.01,10.0,South,12.7,-,N/A,,Scattered Clouds,190,2012-11-25 11:56:00
7:56 AM,30.0,21.0,69,29.99,10.0,SSW,15.0,25.3,N/A,,Overcast,200,2012-11-25 12:56:00
8:56 AM,30.9,21.0,67,29.98,10.0,SSW,15.0,-,N/A,,Overcast,210,2012-11-25 13:56:00
9:56 AM,33.1,21.9,64,29.98,10.0,SW,18.4,25.3,N/A,,Mostly Cloudy,220,2012-11-25 14:56:00
10:56 AM,36.0,21.9,57,29.97,10.0,SW,19.6,26.5,N/A,,Scattered Clouds,220,2012-11-25 15:56:00
11:56 AM,39.9,24.1,53,29.94,10.0,WSW,16.1,-,N/A,,Scattered Clouds,240,2012-11-25 16:56:00
12:56 PM,42.1,25.0,51,29.92,10.0,SW,16.1,-,N/A,,Partly Cloudy,230,2012-11-25 17:56:00
1:56 PM,45.0,25.0,46,29.91,10.0,West,13.8,20.7,N/A,,Scattered Clouds,260,2012-11-25 18:56:00
2:56 PM,45.0,26.1,48,29.91,10.0,SW,13.8,-,N/A,,Scattered Clouds,230,2012-11-25 19:56:00
3:56 PM,44.1,27.0,51,29.93,10.0,WSW,10.4,-,N/A,,Scattered Clouds,250,2012-11-25 20:56:00
4:56 PM,39.9,27.0,60,29.94,10.0,WSW,9.2,-,N/A,,Mostly Cloudy,250,2012-11-25 21:56:00
5:56 PM,39.0,27.0,62,29.95,10.0,SW,6.9,-,N/A,,Overcast,230,2012-11-25 22:56:00
6:56 PM,37.0,27.0,67,29.97,10.0,SW,8.1,-,N/A,,Mostly Cloudy,230,2012-11-25 23:56:00
7:56 PM,39.0,28.0,65,30.01,10.0,WSW,8.1,-,N/A,,Mostly Cloudy,250,2012-11-26 00:56:00
8:56 PM,39.0,28.0,65,30.00,10.0,West,6.9,-,N/A,,Overcast,260,2012-11-26 01:56:00
9:56 PM,39.0,28.0,65,30.03,10.0,West,6.9,-,N/A,,Overcast,280,2012-11-26 02:56:00
10:56 PM,37.9,28.9,70,30.04,10.0,West,4.6,-,N/A,,Overcast,280,2012-11-26 03:56:00
11:56 PM,39.0,28.9,67,30.04,10.0,West,4.6,-,N/A,,Overcast,260,2012-11-26 04:56:00